Cloud_Cover
100 100 100 100 100 100 100 100 100 100 100 100 100 100 100 100 100 100 100 96 49 80 100 100 100 100 84 50 75 44 14 5
100 100 100 96 98 100 100 100 100 100 100 100 100 100 100 85 100 100 96 100 100 100 100 100 100 76 71 74 57 40 8 2
100 100 100 100 58 100 100 100 100 100 94 82 68 56 61 30 100 100 100 100 100 93 80 74 36 6 11 22 38 9 5 5
100 100 100 100 45 54 34 65 100 99 76 65 36 99 100 100 100 100 100 96 69 64 32 21 5 12 38 6 5 5 5 5
100 100 100 100 100 100 100 100 100 100 100 100 100 100 87 59 23 76 30 60 39 17 5 5 5 5 5 5 5 6 8 90
100 100 100 100 100 100 100 100 100 89 100 98 96 11 53 100 100 79 99 100 100 14 5 5 5 5 5 10 69 98 100 100
78 100 100 100 100 100 100 100 100 56 100 100 88 100 88 95 100 100 100 100 54 37 38 42 90 57 16 98 97 100 98 54
30 59 81 78 88 88 51 64 82 87 100 100 100 100 100 100 100 100 100 100 92 56 96 67 71 66 90 100 92 86 16 5
5 21 24 12 61 61 76 68 72 100 100 100 100 100 100 100 100 100 100 100 56 56 96 46 97 89 100 100 46 38 37 5
5 5 23 11 5 5 85 34 18 93 100 100 100 100 100 100 100 100 100 100 93 100 100 100 100 100 100 96 94 48 9 19
98 17 6 5 5 4 1 77 15 62 100 100 100 100 100 100 100 100 100 94 100 100 97 100 100 100 91 35 10 36 34 72
99 6 4 0 0 0 1 6 92 100 100 86 92 79 100 100 100 100 100 96 99 94 95 98 100 100 98 15 25 98 100 98
31 15 5 0 0 2 21 48 78 49 35 98 100 100 100 91 100 100 100 100 100 100 100 100 100 100 100 84 87 100 100 90
4 0 2 5 22 47 33 9 3 41 100 100 100 93 97 100 100 100 99 99 58 66 51 89 100 100 16 82 100 95 92 70
0 3 4 5 7 5 2 5 65 100 100 69 68 52 58 31 41 59 51 57 98 100 100 100 100 99 100 100 100 100 100 100
5 5 4 0 0 0 1 5 5 5 5 4 5 4 5 46 86 32 90 100 100 100 100 96 100 100 100 100 100 100 100 100
2 2 0 0 0 4 5 5 5 5 4 0 1 83 93 98 100 100 100 100 100 100 100 100 100 97 100 100 100 99 100 100
5 5 0 0 0 0 5 5 0 0 1 5 5 52 96 100 100 100 100 100 100 100 100 100 100 100 100 100 99 99 100 100
0 0 0 0 0 2 1 0 3 5 5 5 5 14 77 100 84 90 100 99 99 99 84 100 100 100 96 97 96 81 57 87